Regional Weather Roundup
Issued by NWS Newport/Morehead, NC

Current Version | Previous Version | Text Only | Print | Product List | Glossary Off
Versions: 1 2 3 4 5 6 7 8 9 10 11 12 13 14 15 16 17 18 19 20 21 22 23 24 25 26 27 28 29 30 31 32 33 34 35 36 37 38 39 40 41 42 43 44 45 46 47 48 49 50
000 ASUS42 KMHX 050625 RWRMHX WEATHER ROUNDUP FOR EASTERN NORTH CAROLINA NATIONAL WEATHER SERVICE NEWPORT/MOREHEAD CITY NC 200 AM EDT SUN JUL 05 2015 NOTE: "FAIR" INDICATES FEW OR NO CLOUDS BELOW 12,000 FEET WITH NO SIGNIFICANT WEATHER AND/OR OBSTRUCTIONS TO VISIBILITY NCZ015>017-031-032-045>047-102-103-050700- NORTH COAST CITY SKY/WX TMP DP RH WIND PRES REMARKS EDENTON LGT RAIN 79 70 75 W13G23 30.05R ELIZABETH CITY PTCLDY 76 72 87 SW5 30.03S KITTY HAWK PTCLDY 79 71 76 SW7 30.03F MANTEO PTCLDY 78 74 88 SW10 30.04F $$ NCZ045>047-081-094-103-104-050700- CENTRAL COAST CITY SKY/WX TMP DP RH WIND PRES REMARKS FRISCO PTCLDY 77 75 93 SW12G18 30.06F SWANQUARTER N/A 81 N/A N/A SW12 30.03R $$ NCZ095-097-098-100-101-050700- SOUTHERN COAST CITY SKY/WX TMP DP RH WIND PRES REMARKS BEAUFORT PTCLDY 79 78 97 SW9 30.07S CEDAR ISLAND N/A 79 N/A N/A S10G16 30.09S JACKSONVILLE PTCLDY 77 72 84 SW5 30.06 PINEY ISLAND CLEAR N/A N/A N/A SW10 30.06S WILMINGTON CLEAR 79 70 74 SW10 30.07S $$ NCZ011>013-027>030-043-044-078>080-089-090>093-098-050700- COASTAL PLAIN CITY SKY/WX TMP DP RH WIND PRES REMARKS AHOSKIE CLOUDY N/A N/A N/A CALM 30.04S CLINTON MOCLDY 76 74 91 CALM 30.06S ELIZABETHTOWN MOCLDY 78 73 86 S5 30.07S GOLDSBORO MOCLDY 77 72 85 S5 30.03S GREENVILLE MOCLDY 73 72 94 SW5 30.06F HAVELOCK CLEAR 79 74 84 SW7 30.07S KENANSVILLE PTCLDY 76 73 90 CALM 30.07S KINSTON MOCLDY 78 72 82 SW5 30.06F NEW BERN CLEAR 78 72 81 SW7 30.07S RICHLANDS PTCLDY 73 68 83 SW5 30.07S ROCKY MOUNT PTCLDY 72 70 93 CALM 30.04S WASHINGTON MOCLDY 75 69 82 CALM 30.06F WHITEVILLE MOCLDY 78 68 70 SW5 30.07S $$ AMZ130-135-150-152-154-156-158-170-250-252-270-ANZ085-086-088-633-658-670-050700- MARINE OBSERVATIONS STATION/POSITION TIME TEMP WIND PRES WAVE SWELL AIR SEA DIR/SP/G HT/PER HT/PER (UTC) (F) (DEG/KT/KT) (MB) (FT/S) (FT/S) CHESAPEAKE LIGHT 0600 76 310/ 5/ 5 1017.3 64 E VA BEACH 0550 77 76 260/ 10/ 12 1016.4 5/ 7 3/ 7 DUCK 0600 80 72 240/ 11/ 13 N/A 2 E DUCK 0511 77 N/A 2/ 6 OREGON INLET 0600 80 80 230/ 12/ 14 1017.3 13E OREGON INLT 0600 74 N/A 4/ 7 2/14 HATTERAS CG 0600 78 79 230/ 11/ 14 1017.5 DIAMOND BUOY 0550 80 81 240/ 19/ 23 1017.6 5/ 5 2/ 9 CAPE LOOKOUT 0600 79 240/ 11/ 15 1017.9 BEAUFORT LAB 0600 79 80 240/ 7/ 11 1017.6 30 SE NEW RVR IN NOT AVBL 27 SE WRIGHTSVLE 0600 80 250/ 14/ 19 N/A 5 SE WRIGHTSVLE 0508 79 78 230/ 12/ 16 1018.3 225 S CAPE HAT 0550 81 80 240/ 10/ 12 1021.8 5/ 6 5/ 6 41 SE CHARLESTON 0550 81 82 220/ 12/ 14 1018.9 3/ 8 3/ 8 $$

USA.gov is the U.S. government's official web portal to all federal, state and local government web resources and services.